Worthington, MN

6:52 AM CST on December 16, 2019 (GMT -0600)
Worthington Municipal

Weather History for KOTG - October, 2019

Change the Weather History Date:

Thursday, October 10, 2019

  Actual Average Record
Temperature  
Mean Temperature 45 °F -  
Max Temperature 55 °F 59 °F 81 °F (1980)
Min Temperature 35 °F 39 °F 16 °F (1987)
Degree Days  
Heating Degree Days 20    
Moisture  
Dew Point 43 °F    
Average Humidity 96    
Maximum Humidity 100    
Minimum Humidity 87    
Precipitation  
Precipitation 0.32 in - - ()
Sea Level Pressure  
Sea Level Pressure 29.82 in    
Wind  
Wind Speed 10 mph (NNW)    
Max Wind Speed 21 mph    
Max Gust Speed 28 mph    
Visibility 5 miles    
Events Rain , Thunderstorm    
Averages and records for this station are not official NWS values.
T = Trace of Precipitation, MM = Missing Value Source: NWS Daily Summary

Daily Weather History Graph

Daily Weather History Graph

Search for Another Location

Airport or City:

Astronomy

Oct. 10, 2019 Rise Set
Actual Time 7:30 AM CDT 6:47 PM CDT
Civil Twilight 7:01 AM CDT 7:16 PM CDT
Nautical Twilight 6:28 AM CDT 7:49 PM CDT
Astronomical Twilight 5:54 AM CDT 8:22 PM CDT
Moon 5:57 PM CDT (10/10) 4:06 AM CDT (10/10)
Length of Visible Light 12h 14m
Length of Day
11h 17m
Waxing Gibbous, 91% of the Moon is Illuminated
Oct 10
Waxing Gibbous
Oct 13
Full
Oct 21
Last Quarter
Oct 27
New
Nov 4
First Quarter

Hourly Weather History & Observations

Time (CDT) Temp. Windchill Dew Point Humidity Pressure Visibility Wind Dir Wind Speed Gust Speed Precip Events Conditions
12:56 AM 53.1 °F - 52.0 °F 96% 29.90 in 5.0 mi ESE 4.6 mph - 0.00 in Rain Light Rain
1:48 AM 53.6 °F - 51.8 °F 94% 29.89 in 4.0 mi SE 4.6 mph - 0.02 in Rain Light Rain
1:56 AM 53.1 °F - 52.0 °F 96% 29.89 in 5.0 mi SE 4.6 mph - 0.02 in Rain Light Rain
2:56 AM 53.1 °F - 52.0 °F 96% 29.87 in 9.0 mi SE 5.8 mph - 0.03 in Rain Light Rain
3:56 AM 53.1 °F - 52.0 °F 96% 29.86 in 10.0 mi ESE 5.8 mph - 0.02 in Rain Light Rain
4:06 AM 51.8 °F - 51.8 °F 100% 29.85 in 10.0 mi SE 5.8 mph - 0.00 in Rain Light Rain
4:56 AM 52.0 °F - 51.1 °F 97% 29.86 in 9.0 mi SE 5.8 mph - 0.00 in Rain Light Rain
5:56 AM 52.0 °F - 51.1 °F 97% 29.84 in 9.0 mi ESE 8.1 mph - 0.01 in   Overcast
6:56 AM 52.0 °F - 52.0 °F 100% 29.83 in 10.0 mi SE 5.8 mph - N/A   Overcast
7:05 AM 51.8 °F - 51.8 °F 100% 29.82 in 10.0 mi East 4.6 mph - N/A   Overcast
7:56 AM 53.1 °F - 52.0 °F 96% 29.84 in 9.0 mi East 4.6 mph - N/A   Overcast
8:56 AM 53.1 °F - 52.0 °F 96% 29.84 in 8.0 mi ESE 6.9 mph - N/A   Overcast
9:43 AM 53.6 °F - 53.6 °F 100% 29.82 in 8.0 mi ESE 6.9 mph - N/A   Overcast
9:56 AM 54.0 °F - 53.1 °F 97% 29.83 in 7.0 mi East 8.1 mph - N/A   Overcast
10:56 AM 55.0 °F - 54.0 °F 96% 29.82 in 2.5 mi ESE 5.8 mph - N/A   Overcast
11:10 AM 55.4 °F - 53.6 °F 94% 29.81 in 1.5 mi ESE 6.9 mph - N/A   Overcast
11:34 AM 55.4 °F - 55.4 °F 100% 29.79 in 1.0 mi ESE 6.9 mph - N/A   Overcast
11:56 AM 55.9 °F - 55.0 °F 97% 29.80 in 2.0 mi SE 6.9 mph - 0.00 in Rain Light Rain
12:22 PM 55.4 °F - 55.4 °F 100% 29.78 in 3.0 mi ESE 6.9 mph - 0.01 in Rain Light Rain
12:56 PM 55.9 °F - 55.0 °F 97% 29.78 in 10.0 mi NE 5.8 mph - 0.03 in   Overcast
1:18 PM 46.4 °F 40.7 °F 44.6 °F 93% 29.76 in 2.0 mi North 12.7 mph - 0.00 in Rain Light Rain
1:25 PM 46.4 °F 41.1 °F 44.6 °F 93% 29.76 in 1.5 mi North 11.5 mph - 0.01 in Rain Light Rain
1:37 PM 44.6 °F 38.8 °F 44.6 °F 100% 29.76 in 2.5 mi North 11.5 mph - 0.02 in Rain Light Rain
1:52 PM 44.6 °F 39.2 °F 44.6 °F 100% 29.76 in 3.0 mi North 10.4 mph - 0.04 in Rain Light Rain
1:56 PM 45.0 °F 39.3 °F 44.1 °F 97% 29.78 in 4.0 mi NNW 11.5 mph - 0.04 in Rain Light Rain
2:16 PM 44.6 °F 37.8 °F 44.6 °F 100% 29.76 in 2.0 mi NNW 15.0 mph - 0.01 in Rain Light Rain
2:44 PM 42.8 °F 34.8 °F 42.8 °F 100% 29.76 in 1.8 mi NNW 17.3 mph - 0.02 in Rain Light Rain
2:50 PM 42.8 °F 34.8 °F 42.8 °F 100% 29.76 in 3.0 mi NW 17.3 mph - 0.02 in Rain Light Rain
2:56 PM 42.1 °F 33.9 °F 41.0 °F 96% 29.80 in 3.0 mi NNW 17.3 mph - 0.02 in Rain Light Rain
3:04 PM 42.8 °F 34.8 °F 41.0 °F 93% 29.77 in 2.0 mi NW 17.3 mph - 0.01 in Rain Light Rain
3:10 PM 42.8 °F 34.8 °F 39.2 °F 87% 29.77 in 1.8 mi NW 17.3 mph - 0.01 in Rain Light Rain
3:15 PM 41.0 °F 33.1 °F 39.2 °F 93% 29.77 in 2.0 mi NNW 15.0 mph - 0.01 in Rain Light Rain
3:33 PM 39.2 °F 30.2 °F 39.2 °F 100% 29.78 in 3.0 mi NW 17.3 mph 21.9 mph 0.02 in Rain Light Rain
3:54 PM 39.2 °F 29.3 °F 39.2 °F 100% 29.78 in 2.0 mi NNW 20.7 mph 25.3 mph 0.02 in Rain Light Rain
3:56 PM 39.9 °F 30.2 °F 39.0 °F 97% 29.81 in 2.0 mi NW 20.7 mph 25.3 mph 0.02 in Rain Light Rain
4:06 PM 39.2 °F 29.8 °F 37.4 °F 93% 29.78 in 1.8 mi NNW 18.4 mph 25.3 mph 0.01 in Rain Light Rain
4:16 PM 39.2 °F 31.2 °F 37.4 °F 93% 29.79 in 2.0 mi NW 13.8 mph - 0.01 in Rain Light Rain
4:29 PM 39.2 °F 30.5 °F 37.4 °F 93% 29.79 in 2.0 mi NW 16.1 mph 25.3 mph 0.02 in Rain Light Rain
4:34 PM 39.2 °F 30.8 °F 37.4 °F 93% 29.79 in 1.8 mi NW 15.0 mph - 0.02 in Rain Light Rain
4:53 PM 37.4 °F 29.3 °F 37.4 °F 100% 29.79 in 1.8 mi NW 12.7 mph 24.2 mph 0.03 in Rain Light Rain
4:56 PM 37.9 °F 30.0 °F 37.0 °F 97% 29.82 in 2.0 mi NW 12.7 mph - 0.03 in Rain Light Rain
5:11 PM 37.4 °F 28.9 °F 37.4 °F 100% 29.79 in 1.5 mi NW 13.8 mph - 0.01 in Rain Rain
5:25 PM 37.4 °F 29.8 °F 37.4 °F 100% 29.80 in 1.5 mi NW 11.5 mph - 0.02 in Rain Light Rain
5:29 PM 37.4 °F 28.9 °F 37.4 °F 100% 29.80 in 2.0 mi NW 13.8 mph - 0.03 in Rain Light Rain
5:56 PM 39.0 °F 30.6 °F 37.9 °F 96% 29.84 in 3.0 mi NW 15.0 mph - 0.03 in Rain Light Rain
6:20 PM 37.4 °F 27.8 °F 37.4 °F 100% 29.81 in 2.0 mi WNW 17.3 mph - 0.02 in Rain Light Rain
6:32 PM 37.4 °F 29.3 °F 37.4 °F 100% 29.81 in 4.0 mi NW 12.7 mph - 0.02 in Rain Light Rain
6:56 PM 37.9 °F 28.5 °F 37.0 °F 97% 29.84 in 4.0 mi WNW 17.3 mph - 0.02 in Rain Light Rain
7:36 PM 37.4 °F 27.8 °F 35.6 °F 93% 29.83 in 10.0 mi WNW 17.3 mph - 0.02 in   Overcast
7:43 PM 37.4 °F 27.8 °F 35.6 °F 93% 29.82 in 9.0 mi WNW 17.3 mph - 0.02 in Rain Light Rain
7:56 PM 37.0 °F 27.4 °F 36.0 °F 96% 29.86 in 9.0 mi WNW 17.3 mph - 0.02 in Rain , Thunderstorm Light Rain
8:03 PM 37.4 °F 27.5 °F 35.6 °F 93% 29.83 in 9.0 mi WNW 18.4 mph - 0.00 in Rain , Thunderstorm Light Rain
8:10 PM 37.4 °F 28.2 °F 35.6 °F 93% 29.83 in 10.0 mi WNW 16.1 mph - 0.00 in   Overcast
8:19 PM 37.4 °F 27.8 °F 35.6 °F 93% 29.83 in 10.0 mi WNW 17.3 mph - 0.00 in   Overcast
8:56 PM 37.0 °F 27.4 °F 35.1 °F 93% 29.87 in 10.0 mi WNW 17.3 mph - 0.00 in   Overcast
9:56 PM 35.1 °F 24.1 °F 33.1 °F 92% 29.87 in 10.0 mi WNW 19.6 mph 27.6 mph 0.03 in Rain Light Rain
10:04 PM 35.6 °F 25.2 °F 33.8 °F 93% 29.84 in 10.0 mi WNW 18.4 mph 24.2 mph 0.00 in   Overcast
10:56 PM 35.1 °F 25.5 °F 33.1 °F 92% 29.91 in 10.0 mi WNW 15.0 mph - 0.00 in   Overcast
11:56 PM 35.1 °F 24.8 °F 32.0 °F 89% 29.88 in 10.0 mi WNW 17.3 mph 26.5 mph N/A   Overcast